Location: Albany
(42.6526°N, 73.7562°W)
Time: 12:45:49
(UTC+00:00)

Cosmos 1633 - Pass Details

Date: 19 November 2019
Orbit: 465 x 482 km, 82.5° (Epoch: 07 December)

Event Time Altitude Azimuth Distance (km) Brightness Sun altitude
Rises 22:21:46 0° 353° (N) 2,554 6.1 -9.8°
Reaches altitude 10° 22:23:54 10° 355° (N) 1,668 5.2 -10.2°
Maximum altitude 22:27:32 74° 82° (E) 504 2.4 -10.8°
Drops below altitude 10° 22:31:08 10° 167° (SSE) 1,647 5.3 -11.5°
Sets 22:33:13 0° 169° (S) 2,517 6.3 -11.8°
